USA 176 (DSP 22)

Last updated on Fri Dec 19 2025 00:02:48 GMT+0000 (Coordinated Universal Time)

1 28158U 04004A 25352.60621493 -.00000146 00000+0 00000+0 0 9990 2 28158 11.8152 27.3769 0003146 242.3140 299.5615 1.00272962 31121
UTC large
Height (km)
Speed (km/s)
/
Latitude / Longitude
Inclination (degrees)
Orbital Period (minutes)
Azimuth
Elevation
Range (km)
Doppler Factor

Next 0 passes for location: London (51.5072 / 0.1276)

Sorry there are no passes over London.